Regional Weather Roundup
Issued by NWS

Home | Current Version | Previous Version | Text Only | Print | Product List | Glossary Off
Versions: 1 2 3 4 5 6 7 8 9 10 11 12 13 14 15 16 17 18 19 20 21 22 23 24 25 26 27 28 29 30 31 32 33 34 35 36 37 38 39 40 41 42 43 44 45 46 47 48 49 50

085
ASUS44 KLIX 011301
RWRLA
LOUISIANA WEATHER ROUNDUP
NATIONAL WEATHER SERVICE NEW ORLEANS LA
800 AM CDT FRI AUG 01 2014

NOTE: "FAIR" INDICATES FEW OR NO CLOUDS BELOW 12,000 FEET WITH NO
      SIGNIFICANT WEATHER AND/OR OBSTRUCTIONS TO VISIBILITY.
      SKY/WX - SKY CONDITION AND SIGNIFICANT WEATHER.
      TMP - AIR TEMPERATURE.    DP   - DEWPOINT TEMPERATURE.
      RH  - RELATIVE HUMIDITY.  PRES - PRESSURE.
      HX  - HEAT INDEX.         WCI  - WIND CHILL INDEX.

*  THESE STATIONS ARE NOT NWS OR FAA STATIONS AND ARE NOT UNDER
   NWS QUALITY CONTROL.

LAZ040-048-061>063-065-066-069-011400-
SOUTHEAST LOUISIANA

CITY           SKY/WX    TMP DP  RH WIND       PRES   REMARKS
N.O. AUDUBON     N/A     82  70  67 MISG        N/A
N.O. INTL ARPT CLOUDY    80  70  71 E3        30.00R
N.O. LAKEFRONT CLOUDY    80  70  71 E7        30.01R
N.O. DOWNTOWN* FAIR      81  66  61 NE6       30.02R
SLIDELL        CLOUDY    74  68  81 NE3       30.01R
BATON ROUGE    CLOUDY    74  68  81 E7        29.98F
BOOTHVILLE     CLOUDY    79  70  74 CALM      30.01R
BELLE CHASSE   CLOUDY    78  71  79 CALM      30.00R HAZE
BOGALUSA*      FAIR      74  68  82 CALM      30.03S
GALLIANO*      NOT AVBL
NEW ROADS*     FAIR      74  69  82 CALM      29.98S
GONZALES*      FAIR      76  74  95 CALM      29.99S
HAMMOND*       NOT AVBL
HOUMA*         MOSUNNY   77  72  83 CALM      29.99S
PORT FOURCHON* SUNNY     82  66  57 SE5       30.01S

$$

LAZ041-044-053-054-011400-
SOUTHWEST LOUISIANA

CITY           SKY/WX    TMP DP  RH WIND       PRES   REMARKS
LAKE CHARLES   LGT RAIN  77  75  93 CALM      29.95R
LAFAYETTE      RAIN      75  72  90 S14G23    29.99R
PATTERSON      CLOUDY    77  73  88 SE5       30.03R
SALT POINT       N/A     83  76  79 CALM      29.98R
NEW IBERIA     HVY RAIN  78  74  87 W5        30.00R FOG
CHENAULT AIRPK TSTM      77  73  88 W12       29.97R FOG

$$

LAZ027-028-011400-
CENTRAL LOUISIANA

CITY           SKY/WX    TMP DP  RH WIND       PRES   REMARKS
FORT POLK      CLOUDY    75  74  96 CALM      29.95S
ALEXANDRIA INT RAIN      71  70  96 E5        29.95R FOG
ALEXANDRIA     RAIN      71  68  90 NE5       29.97R

$$

LAZ001-002-011400-
NORTHWEST LOUISIANA

CITY           SKY/WX    TMP DP  RH WIND       PRES   REMARKS
SHREVEPORT     DRIZZLE   68  67  96 E5        29.97S FOG
BARKSDALE AFB  DRIZZLE   68  68  99 E7        29.98R FOG
DTN SHREVEPORT CLOUDY    68  66  93 VRB3      29.98S FOG

$$

LAZ014-016-011400-
NORTHEAST LOUISIANA

CITY           SKY/WX    TMP DP  RH WIND       PRES   REMARKS
MONROE         RAIN      69  67  93 E6        30.02R FOG
TALLULAH       RAIN      70  67  90 NE7       30.02R FOG

$$




USA.gov is the U.S. government's official web portal to all federal, state and local government web resources and services.